Location: Im Fang
(46.6019°N, 7.2397°E)
Time: 04:03:41
(UTC+00:00)

NOAA 6 - Pass Details

Date: 08 December 2019
Orbit: 773 x 787 km, 98.7° (Epoch: 20 January)

Event Time Altitude Azimuth Distance (km) Brightness Sun altitude
Rises 05:59:31 0° 8° (N) 3,261 7.1 -10.3°
Reaches altitude 10° 06:01:56 10° 1° (N) 2,330 6.3 -9.9°
Maximum altitude 06:06:43 41° 293° (WNW) 1,119 4.4 -9.2°
Drops below altitude 10° 06:11:28 10° 224° (SW) 2,319 6.3 -8.4°
Sets 06:13:53 0° 218° (SW) 3,243 7.1 -8.0°
